Regional Weather Roundup
Issued by NWS

Home | Current Version | Previous Version | Text Only | Print | Product List | Glossary Off
Versions: 1 2 3 4 5 6 7 8 9 10 11 12 13 14 15 16 17 18 19 20 21 22 23 24 25 26 27 28 29 30 31 32 33 34 35 36 37 38 39 40 41 42 43 44 45 46 47 48 49 50

000
ASUS43 KDMX 200207
RWRIA

WEATHER ROUNDUP FOR IOWA
NATIONAL WEATHER SERVICE DES MOINES IA
900 PM CDT SUN OCT 19 2014

NOTE: "FAIR" INDICATES FEW OR NO CLOUDS BELOW 12,000 FEET WITH NO
SIGNIFICANT WEATHER AND/OR OBSTRUCTIONS TO VISIBILITY.

* - THESE STATIONS ARE NOT NWS STATIONS...THUS NOT UNDER NWS
QUALITY CONTROL.  THEY ALSO DO NOT REPORT WEATHER SUCH
AS PRECIPITATION OR FOG.

IAZ001>003-012>014-020>022-031>034-043>046-200300-
   NORTHWEST IOWA

CITY           SKY/WX    TMP DP  RH WIND       PRES   REMARKS
CARROLL *      CLEAR     57  48  72 W7        29.91F
CHEROKEE *     CLEAR     55  45  69 CALM      29.91S
DENISON *      CLEAR     55  48  76 CALM      29.91F
LE MARS *      CLEAR     48  43  81 CALM      29.92S
ORANGE CITY *  CLEAR     59  45  58 CALM      29.92S
SHELDON *      CLEAR     50  41  71 NW3       29.90S
SIOUX CITY     CLEAR     49  44  83 CALM      29.92S
SPENCER        CLEAR     50  43  77 W7        29.91R
STORM LAKE *   CLEAR     57  46  67 W9        29.92S
$$

IAZ055>058-069>071-079>083-090>094-200300-
   SOUTHWEST IOWA

CITY           SKY/WX    TMP DP  RH WIND       PRES   REMARKS
ATLANTIC *     CLEAR     52  46  82 SW3       29.94R
AUDUBON *      CLEAR     54  45  71 CALM      29.94S
CLARINDA *     CLEAR     54  46  76 CALM      29.98S
COUNCIL BLFS * CLEAR     59  50  72 SW7       29.94S
CRESTON *      CLEAR     55  46  71 SW9       29.96R
HARLAN  *      CLEAR     54  48  82 CALM      29.97S
LAMONI         CLEAR     53  45  74 SW9       29.96S
RED OAK *      CLEAR     54  46  76 S3        29.95S
SHENANDOAH *   CLEAR     55  48  76 W3        29.96F
$$

IAZ047>049-059>061-072>074-084-200300-
   CENTRAL IOWA

CITY           SKY/WX    TMP DP  RH WIND       PRES   REMARKS
AMES           CLEAR     52  45  77 SW3       29.91S
ANKENY *       CLEAR     57  48  72 SW5       29.92S
CHARITON *     CLEAR     54  46  76 SW8       29.94F
DES MOINES     CLEAR     58  47  66 SW9       29.92F
GRINNELL*      CLEAR     54  44  70 SW7       29.93S
KNOXVILLE *    CLEAR     55  45  67 SW9       29.92S
MARSHALLTOWN   CLEAR     54  46  74 SW8       29.89F
PELLA *        CLEAR     55  46  70 SW7       29.94S
PERRY *          N/A     53  46  78 SW5       29.92R
$$

IAZ004>006-015-016-023>025-035-036-200300-
   NORTH CENTRAL IOWA

CITY           SKY/WX    TMP DP  RH WIND       PRES   REMARKS
ALGONA *       CLEAR     55  46  71 W10       29.88S
CLARION *      CLEAR     50  46  87 S6        29.88S
ESTHERVILLE    CLEAR     51  42  71 W8        29.89R
FORT DODGE *   CLEAR     54  45  71 SW5       29.90S
MASON CITY     CLEAR     57  47  69 SW12      29.87S
FOREST CITY *    N/A     52  45  76 W3        29.87R
IOWA FALLS *     N/A     54  46  73 SW8       29.90S
$$

IAZ007>011-017>019-026>030-037>042-050>054-066-200300-
   NORTHEAST IOWA

CITY           SKY/WX    TMP DP  RH WIND       PRES   REMARKS
CEDAR RAPIDS   CLEAR     51  44  77 S8        29.91F
CHARLES CITY * CLEAR     54  45  71 SW9       29.86F
CLINTON *      CLEAR     52  41  66 SW6       29.95R
DECORAH *      CLEAR     55  46  71 SW8G16    29.83F
DUBUQUE        PTCLDY    49  42  77 S12       29.90F
MONTICELLO *   PTCLDY    50  43  76 S6        29.90F
OELWEIN *      CLEAR     52  46  82 SW8       29.88F
WATERLOO       CLEAR     55  46  71 SW9       29.87F
$$

IAZ064-065-067-068-078-200300-
   EAST CENTRAL IOWA

CITY           SKY/WX    TMP DP  RH WIND       PRES   REMARKS
DAVENPORT      CLEAR     54  42  64 SW9       29.94S
IOWA CITY      CLEAR     53  43  68 SW6       29.94S
MT. PLEASANT * CLEAR     53  41  63 S7        29.95S
MUSCATINE *    CLEAR     55  43  62 S5        29.95S
QUAD CITIES    PTCLDY    56  43  61 SW9       29.93S
$$

IAZ062-063-075>077-085>089-095>099-200300-
   SOUTHEAST IOWA

CITY           SKY/WX    TMP DP  RH WIND       PRES   REMARKS
BURLINGTON     PTCLDY    55  44  66 SW10      29.95F
FAIRFIELD *    CLEAR     54  43  66 SW5       29.95S
FORT MADISON * PTCLDY    57  46  67 S7        29.96F
KEOKUK *       PTCLDY    55  46  71 SW10      29.96F
OSKALOOSA *      N/A     51  44  75 SW7       29.94S
CENTERVILLE *    N/A     50  45  81 S6        29.97S
OTTUMWA        CLEAR     54  44  69 SW7       29.94F
WASHINGTON *   CLEAR     54  45  71 SW8       29.94S
$$

ABBREVIATIONS USED IN REMARKS
   TC - TEMPERATURES IN CELSIUS
  WCI - WIND CHILL INDEX
   HX - HEAT INDEX
  VSB - VISIBILITY
$$



USA.gov is the U.S. government's official web portal to all federal, state and local government web resources and services.